STARLINK-4327, 53079

Orbit data source: Space-Track

STARLINK-4327, 53079 is a payload satellite owned by SpaceX/Seattle (US) in SSO that was launched on Mon, 11 Jul 2022 UTC via an FALCON 9 launch vehicle from the Air Force Western Test Range (AFWTR). Payload-class satellites include a variety of spacecraft equipped with specific instruments for various scientific and technological missions. These include communications satellites like Starlink; space stations such as the ISS; scientific satellites like the Hubble; Earth observation satellites from companies like Planet Labs, Umbra, and HawkEye 360; GPS; miniature CubeSats for education and research; and military/defense satellites.

Loading next visibility...
Identifier
53079, 2022-077AN
Orbit
SSO
Country
Flag of USUS
Related business
Manufacturer
SpaceX/Seattle
Mission
Operational Commercial Communications
Bus & Motor
STARLINK, Unknown motor
Mass
297 kg wet, ~275 kg dry
Launch date (UTC)
2022-07-11 (4 years ago)
Launch vehicle
FALCON 9
Launch site
Air Force Western Test Range (AFWTR)
Object type
Payload
Rocket body
Debris
Shape & HBR
Box + 1 Pan, 10.1 m
Radar Cross Section
13.562 m², Large (>1 m²)

Expand to show TLE details & history
Last TLE update: 3 days ago

TLE from 3 days ago
0 STARLINK-4327
1 53079U 22077AN  26170.95578208 -.00000161  00000-0 -72339-5 0  9991
2 53079  97.3378 350.9445 0001516  98.2740 261.8659 15.05650208216374
Epoch: 2026-06-19T22:56Z
TLE epoch observation values (Epoch: 2026-06-19T22:56:19.571Z)
Latitude
-0.00009°
Longitude
98.68564°
Altitude
552.732 km
Speed
7.585 km/s
True Right ascension
23h 23m 46s
True Declination
0° 00' 00"
Sunlit
Object was in daylight at epoch
Visualization orbit readout
Latitude
Unknown
Longitude
Unknown
Altitude
Unknown
Speed
Unknown
Apparent Right ascension
Unknown
Apparent Declination
Unknown
Sunlit
N/A
Visualization observer readout
Local Sidereal Time
21:58:58
Azimuth
Unknown
Elevation
Unknown
Doppler factor
Unknown
Orbital elements
Apogee altitude
547.542 km
Perigee altitude
545.443 km
Semi-major axis
6,924.63 km
Eccentricity
0.00015
Inclination
97.3378°
RAAN
350.9445°
Arg. of periapsis
98.274°
True anomaly
261.8487°
Mean anomaly
261.8659°
Eccentric anomaly
261.8573°
Mean motion
3.76659 °/min
Orbital period
95.58 mins
BSTAR
-0.0000072339
Loading maneuver chart data...
Computing Atmospheric mass density...
Loading historical data...
Loading historical data...
Loading historical data...
Loading historical data...
Loading historical data...
Loading historical data...
Loading historical data...

Documentation

Showing up to 5 results
|